sat.trackr.live / text

‹ back to catalog

STARLINK-36356

NORAD 68242 · 2026-054L

PAYLOAD ACTIVE UNKNOWN

§ Identity

Operator
Country
US
Launch date
2026-03-17
Launch site
AFETR
Launch vehicle
Mass (kg)
RCS (m²)

Purposes: comms

External: N2YO · Heavens-Above · Gunter

§ Orbital elements

Epoch: 2026-05-24T15:47:13.146720Z

Period
94.11 min
Inclination
53.1572°
Eccentricity
0.0000673
Mean motion
15.30198431 rev/d
Perigee alt
474.8 km
Apogee alt
475.7 km
Semi-major
6,853.4 km
B*
4.7118e-4
RAAN
303.9976°
Arg perigee
62.1942°
Mean anomaly
297.9127°
Rev number
1,062

§ Raw data

STARLINK-363561 68242U 26054L   26144.65779105  .00013621  00000+0  47118-3 0  99922 68242  53.1572 303.9976 0000673  62.1942 297.9127 15.30198431 10625

JSON: /api/v1/satellites/68242 · /tle

For live sub-satellite position, see the globe view (requires WebGL).

§ Visibility from observer

Set your observer location to see the next 7 days of passes ≥ 10°. The values pass through the URL so the page stays shareable.

No JS? Fill the form by hand. The geolocation button needs JavaScript.